Flag for United Kingdom Weather past 2 weeks in King's Lynn, England, United Kingdom

Now
37 °F

Light rain. Partly cloudy.


Feels Like: 28 °F
Forecast: 36 / 39 °F
Wind: 17 mph from North

Location: Marham

Current Time: Dec 27, 2014 at 5:55:54 AM

Latest Report: Dec 27, 2014 at 4:50 AM


Visibility: N/A

Pressure: 29.62 "Hg

Humidity: 93%

Dew point: 36 °F

Location of King's LynnLocation

Historic Weather in King's Lynn — Graph

°F

King's Lynn temperature yesterday

Maximum temperature yesterday: 37 °F (at 1:50 PM)
Minimum temperature yesterday: 28 °F (at 2:50 AM)
Average temperature yesterday: 34 °F

Past Weeks' High & Low Weather Summary

 TemperatureHumidityPressure
High55 °F (Dec 17, 11:50 AM)100% (Dec 13, 4:50 AM)30.45 "Hg (Dec 13, 4:50 AM)
Low28 °F (Dec 13, 6:50 AM)61% (Dec 24, 2:50 PM)29.12 "Hg (Dec 12, 5:50 AM)
Average43 °F87%29.90 "Hg
* Reported Dec 12 4:50 AM — Dec 27 4:50 AM, King's Lynn, Weather by CustomWeather, © 2014

Note: Actual official high and low records may vary slightly from our data, if they occured in-between our weather recording intervals... More about our weather records

Advertising

King's Lynn weather history for previous 24 hours

 ConditionsComfort  
Time TempWeatherWind HumidityBarometerVisibility
4:50 AM
Dec 27
37 °FLight rain. Partly cloudy.17 mph93%29.62 "HgN/A
3:50 AM36 °FLight rain. Partly cloudy.17 mph93%29.59 "HgN/A
2:50 AM36 °FLight rain. Passing clouds.21 mph93%29.53 "HgN/A
1:50 AM36 °FLight rain. Passing clouds.21 mph87%29.50 "HgN/A
12:50 AM34 °FSnow. Passing clouds.16 mph93%29.50 "Hg2 mi
11:50 PM
Dec 26
34 °FRain. Passing clouds.15 mph100%29.53 "Hg3 mi
10:50 PM36 °FRain. Passing clouds.20 mph100%29.59 "Hg4 mi
9:50 PM37 °FRain. Passing clouds.21 mph93%29.68 "Hg2 mi
8:50 PM36 °FRain. Passing clouds.16 mph93%29.77 "Hg6 mi
7:50 PM36 °FRain. Passing clouds.15 mph93%29.89 "Hg5 mi
6:50 PM37 °FRain. Partly cloudy.10 mph87%29.95 "Hg6 mi
5:50 PM37 °FSprinkles. Passing clouds.10 mph93%30.04 "HgN/A
4:50 PM37 °FOvercast.9 mph93%30.09 "HgN/A
3:50 PM37 °FOvercast.9 mph93%30.15 "HgN/A
2:50 PM37 °FOvercast.8 mph93%30.18 "HgN/A
1:50 PM37 °FPartly sunny.7 mph93%30.24 "HgN/A
12:50 PM36 °FChilly.7 mph100%30.27 "HgN/A
11:50 AM34 °FFog.7 mph100%30.33 "Hg6 mi
10:50 AM32 °FScattered clouds.7 mph100%30.36 "Hg4 mi
9:50 AM32 °FIce fog.6 mph100%30.39 "Hg3 mi
8:50 AM32 °FLow clouds.5 mph93%30.39 "Hg1 mi
7:50 AM30 °FFog.5 mph100%30.39 "Hg0 mi
6:50 AM30 °FFog.3 mph100%30.39 "Hg0 mi
5:50 AM28 °FFog.3 mph100%30.42 "Hg0 mi
Weather by CustomWeather, © 2014

See weather overviewHow to use our weather pages